Time,TemperatureF,DewpointF,PressureIn,WindDirection,WindDirectionDegrees,WindSpeedMPH,WindSpeedGustMPH,Humidity,HourlyPrecipIn,Conditions,Clouds,dailyrainin,SoftwareType,DateUTC
2013-02-27 00:00:00,34.3,29.1,29.97,NE,48,1.0,1.0,81,0.00,,,0.00,Wunderground v.1.13,2013-02-27 05:00:00,
2013-02-27 00:30:00,33.7,28.8,29.96,NE,48,1.0,1.0,82,0.00,,,0.00,Wunderground v.1.13,2013-02-27 05:30:00,
2013-02-27 01:00:00,33.8,28.6,29.97,NE,48,0.0,5.0,81,0.00,,,0.00,Wunderground v.1.13,2013-02-27 06:00:00,
2013-02-27 01:30:00,33.8,28.3,29.97,NE,46,2.0,5.0,80,0.00,,,0.00,Wunderground v.1.13,2013-02-27 06:30:00,
2013-02-27 02:00:00,35.0,28.8,29.95,NE,41,3.0,3.0,78,0.00,,,0.00,Wunderground v.1.13,2013-02-27 07:00:00,
2013-02-27 02:30:00,35.5,28.7,29.93,NE,54,5.0,5.0,76,0.00,,,0.00,Wunderground v.1.13,2013-02-27 07:30:00,
2013-02-27 03:00:00,35.5,28.7,29.91,NE,39,4.0,5.0,76,0.00,,,0.00,Wunderground v.1.13,2013-02-27 08:00:00,
2013-02-27 03:30:00,35.5,28.4,29.91,NE,36,3.0,3.0,75,0.00,,,0.00,Wunderground v.1.13,2013-02-27 08:30:00,
2013-02-27 04:00:00,35.8,27.3,29.89,NNE,31,4.0,4.0,71,0.00,,,0.00,Wunderground v.1.13,2013-02-27 09:00:00,
2013-02-27 04:30:00,35.3,27.5,29.89,NE,40,4.0,4.0,73,0.00,,,0.00,Wunderground v.1.13,2013-02-27 09:30:00,
2013-02-27 05:00:00,35.0,27.5,29.86,NNE,15,5.0,6.0,74,0.00,,,0.00,Wunderground v.1.13,2013-02-27 10:00:00,
2013-02-27 05:30:00,35.3,27.2,29.84,NNE,15,4.0,8.0,72,0.00,,,0.00,Wunderground v.1.13,2013-02-27 10:30:00,
2013-02-27 06:00:00,35.2,27.7,29.83,North,5,6.0,6.0,74,0.00,,,0.00,Wunderground v.1.13,2013-02-27 11:00:00,
2013-02-27 06:30:00,35.0,27.9,29.83,NNE,30,5.0,7.0,75,0.00,,,0.00,Wunderground v.1.13,2013-02-27 11:30:00,
2013-02-27 07:00:00,34.1,28.9,29.81,NNE,28,6.0,15.0,81,0.00,,,0.01,Wunderground v.1.13,2013-02-27 12:00:00,
2013-02-27 07:30:00,33.8,29.5,29.80,NE,42,8.0,8.0,84,0.08,,,0.04,Wunderground v.1.13,2013-02-27 12:30:00,
2013-02-27 08:00:00,33.7,30.2,29.79,NE,46,9.0,20.0,87,0.04,,,0.06,Wunderground v.1.13,2013-02-27 13:00:00,
2013-02-27 08:30:00,33.5,30.3,29.78,NNE,26,7.0,7.0,88,0.09,,,0.09,Wunderground v.1.13,2013-02-27 13:30:00,
2013-02-27 09:00:00,33.7,30.5,29.77,ENE,74,8.0,8.0,88,0.07,,,0.13,Wunderground v.1.13,2013-02-27 14:00:00,
2013-02-27 09:30:00,33.4,30.5,29.75,NNE,28,8.0,8.0,89,0.10,,,0.17,Wunderground v.1.13,2013-02-27 14:30:00,
2013-02-27 10:00:00,33.4,30.8,29.74,NE,34,9.0,9.0,90,0.06,,,0.20,Wunderground v.1.13,2013-02-27 15:00:00,
2013-02-27 10:30:00,33.4,30.8,29.73,NE,40,8.0,14.0,90,0.05,,,0.22,Wunderground v.1.13,2013-02-27 15:30:00,
2013-02-27 11:00:00,33.2,30.6,29.71,NNE,18,11.0,11.0,90,0.04,,,0.24,Wunderground v.1.13,2013-02-27 16:00:00,
2013-02-27 11:30:00,33.4,30.5,29.71,NE,42,12.0,12.0,89,0.05,,,0.26,Wunderground v.1.13,2013-02-27 16:30:00,
2013-02-27 12:00:00,33.2,30.6,29.71,NNE,30,11.0,11.0,90,0.11,,,0.30,Wunderground v.1.13,2013-02-27 17:00:00,
2013-02-27 12:30:00,33.1,30.8,29.69,NNE,26,10.0,13.0,91,0.00,,,0.32,Wunderground v.1.13,2013-02-27 17:30:00,
2013-02-27 13:00:00,32.7,30.9,29.69,NE,36,10.0,10.0,93,0.00,,,0.33,Wunderground v.1.13,2013-02-27 18:00:00,
2013-02-27 13:30:00,32.5,31.0,29.67,NE,53,9.0,10.0,94,0.00,,,0.35,Wunderground v.1.13,2013-02-27 18:30:00,
2013-02-27 14:00:00,32.5,31.2,29.66,NE,49,9.0,13.0,95,0.00,,,0.36,Wunderground v.1.13,2013-02-27 19:00:00,
2013-02-27 14:30:00,32.7,31.7,29.66,NNE,30,9.0,9.0,96,0.04,,,0.38,Wunderground v.1.13,2013-02-27 19:30:00,
2013-02-27 15:00:00,32.9,31.9,29.65,NE,37,9.0,9.0,96,0.05,,,0.41,Wunderground v.1.13,2013-02-27 20:00:00,
2013-02-27 15:30:00,33.1,32.1,29.64,NNE,30,7.0,9.0,96,0.00,,,0.42,Wunderground v.1.13,2013-02-27 20:30:00,
2013-02-27 16:00:00,33.1,32.1,29.63,NE,36,9.0,9.0,96,0.00,,,0.43,Wunderground v.1.13,2013-02-27 21:00:00,
2013-02-27 16:30:00,33.2,32.2,29.63,NNE,29,8.0,10.0,96,0.00,,,0.43,Wunderground v.1.13,2013-02-27 21:30:00,
2013-02-27 17:00:00,33.2,32.2,29.64,NNE,31,6.0,6.0,96,0.00,,,0.44,Wunderground v.1.13,2013-02-27 22:00:00,
2013-02-27 17:30:00,33.1,32.1,29.64,NNE,24,8.0,10.0,96,0.00,,,0.45,Wunderground v.1.13,2013-02-27 22:30:00,
2013-02-27 18:00:00,32.8,31.8,29.64,NNE,28,8.0,8.0,96,0.00,,,0.46,Wunderground v.1.13,2013-02-27 23:00:00,
2013-02-27 18:30:00,32.8,31.8,29.64,NE,52,6.0,6.0,96,0.04,,,0.48,Wunderground v.1.13,2013-02-27 23:30:00,
2013-02-27 19:00:00,32.7,31.9,29.63,NNE,30,6.0,9.0,97,0.05,,,0.54,Wunderground v.1.13,2013-02-28 00:00:00,
2013-02-27 19:30:00,32.7,31.9,29.63,NNE,24,6.0,6.0,97,0.00,,,0.55,Wunderground v.1.13,2013-02-28 00:30:00,
2013-02-27 20:00:00,32.8,32.0,29.62,NE,38,6.0,9.0,97,0.05,,,0.58,Wunderground v.1.13,2013-02-28 01:00:00,
2013-02-27 20:30:00,32.7,31.9,29.61,NNE,32,5.0,11.0,97,0.00,,,0.58,Wunderground v.1.13,2013-02-28 01:30:00,
2013-02-27 21:00:00,32.7,31.9,29.60,NNE,32,6.0,6.0,97,0.00,,,0.60,Wunderground v.1.13,2013-02-28 02:00:00,
2013-02-27 21:30:00,32.7,31.9,29.60,NNE,27,6.0,11.0,97,0.00,,,0.60,Wunderground v.1.13,2013-02-28 02:30:00,
2013-02-27 22:00:00,32.7,31.9,29.59,NNE,30,6.0,6.0,97,0.00,,,0.60,Wunderground v.1.13,2013-02-28 03:00:00,
2013-02-27 22:30:00,32.5,31.7,29.58,NE,54,5.0,9.0,97,0.00,,,0.60,Wunderground v.1.13,2013-02-28 03:30:00,
2013-02-27 23:00:00,32.5,31.7,29.57,NE,37,5.0,9.0,97,0.00,,,0.60,Wunderground v.1.13,2013-02-28 04:00:00,
2013-02-27 23:30:00,32.5,31.5,29.56,NE,49,5.0,8.0,96,0.00,,,0.60,Wunderground v.1.13,2013-02-28 04:30:00,